Flag for Canada Weather past 2 weeks in Moncton, New Brunswick, Canada

Now
63 °F

Partly sunny.


Feels Like: 63 °F
Forecast: N/A
Wind: 5 mph from West

Location: Moncton

Current Time: Sep 17, 2014 at 7:16:55 PM

Latest Report: Sep 17, 2014 at 6:00 PM


Visibility: 15 mi

Pressure: 29.90 "Hg

Humidity: 59%

Dew point: 48 °F

Location of MonctonLocation

Historic Weather in Moncton — Graph

°F

Moncton temperature yesterday

Maximum temperature yesterday: 63 °F (at 1:00 PM)
Minimum temperature yesterday: 39 °F (at 3:00 AM)
Average temperature yesterday: 51 °F

Past Weeks' High & Low Weather Summary

 TemperatureHumidityPressure
High84 °F (Sep 6, 2:00 PM)100% (Sep 3, 11:00 AM)30.47 "Hg (Sep 3, 11:00 AM)
Low39 °F (Sep 9, 7:04 AM)24% (Sep 8, 3:00 PM)29.65 "Hg (Sep 3, 9:00 AM)
Average60 °F73%30.02 "Hg
* Reported Sep 2 6:00 PM — Sep 17 6:00 PM, Moncton, Weather by CustomWeather, © 2014

Note: Actual official high and low records may vary slightly from our data, if they occured in-between our weather recording intervals... More about our weather records

Advertising

Moncton weather history for previous 24 hours

 ConditionsComfort  
Time TempWeatherWind HumidityBarometerVisibility
6:00 PM
Sep 17
63 °FPartly sunny.5 mph59%29.90 "Hg15 mi
5:00 PM66 °FBroken clouds.13 mph43%29.90 "Hg15 mi
4:00 PM68 °FPartly sunny.14 mph40%29.89 "Hg15 mi
3:00 PM68 °FPartly sunny.13 mph40%29.89 "Hg15 mi
2:00 PM66 °FPartly sunny.13 mph40%29.90 "Hg15 mi
1:00 PM66 °FScattered clouds.10 mph46%29.91 "Hg15 mi
12:00 PM63 °FPassing clouds.13 mph56%29.91 "Hg15 mi
11:00 AM59 °FPassing clouds.9 mph68%29.92 "Hg15 mi
10:00 AM55 °FPassing clouds.12 mph77%29.92 "Hg15 mi
9:00 AM54 °FPartly sunny.13 mph88%29.92 "Hg15 mi
8:54 AM52 °FPartly sunny.10 mph94%29.91 "Hg15 mi
8:00 AM50 °FPassing clouds.8 mph94%29.91 "Hg12 mi
7:00 AM48 °FPassing clouds.10 mph94%29.90 "Hg15 mi
6:00 AM50 °FPassing clouds.10 mph88%29.89 "Hg15 mi
5:00 AM50 °FPassing clouds.13 mph88%29.88 "Hg15 mi
4:00 AM52 °FPassing clouds.14 mph88%29.88 "Hg15 mi
3:00 AM52 °FOvercast.12 mph88%29.89 "Hg15 mi
2:00 AM52 °FPassing clouds.8 mph82%29.90 "Hg15 mi
1:00 AM54 °FPassing clouds.10 mph77%29.90 "Hg15 mi
12:00 AM54 °FPartly cloudy.9 mph82%29.91 "Hg15 mi
11:00 PM
Sep 16
54 °FMostly cloudy.9 mph82%29.92 "Hg15 mi
10:00 PM54 °FMostly cloudy.10 mph77%29.92 "Hg15 mi
9:00 PM54 °FOvercast.10 mph82%29.92 "Hg15 mi
8:00 PM55 °FPartly sunny.9 mph82%29.92 "Hg15 mi
7:00 PM57 °FBroken clouds.13 mph77%29.91 "Hg15 mi
Weather by CustomWeather, © 2014

See weather overviewHow to use our weather pages